QPF
0.00 0.00 0.00 0.00 0.00 0.00 0.00 0.00 0.00 0.00 0.00 0.00 0.00 0.00 0.00 0.00 0.00 0.00 0.00 0.00 0.00 0.00 0.00 0.00 0.00 0.01 0.01 0.01 0.01 0.01 0.01 0.01 0.01 0.01 0.01 0.01 0.01 0.01 0.01 0.02 0.02 0.02 0.02
0.00 0.00 0.00 0.00 0.00 0.00 0.00 0.00 0.00 0.00 0.00 0.00 0.00 0.00 0.00 0.00 0.00 0.00 0.00 0.00 0.00 0.00 0.00 0.00 0.00 0.00 0.01 0.01 0.01 0.01 0.01 0.01 0.01 0.01 0.01 0.01 0.01 0.01 0.01 0.02 0.02 0.02 0.02
0.00 0.00 0.00 0.00 0.00 0.00 0.00 0.00 0.00 0.00 0.00 0.00 0.00 0.00 0.00 0.00 0.00 0.00 0.00 0.00 0.00 0.00 0.00 0.00 0.00 0.00 0.00 0.00 0.00 0.01 0.01 0.01 0.01 0.01 0.01 0.01 0.01 0.01 0.01 0.01 0.02 0.02 0.02
0.00 0.00 0.00 0.00 0.00 0.00 0.00 0.00 0.00 0.00 0.00 0.00 0.00 0.00 0.00 0.00 0.00 0.00 0.00 0.00 0.00 0.00 0.00 0.00 0.00 0.00 0.00 0.00 0.00 0.00 0.00 0.00 0.00 0.01 0.01 0.01 0.01 0.01 0.01 0.01 0.01 0.01 0.02
0.00 0.00 0.00 0.00 0.00 0.00 0.00 0.00 0.00 0.00 0.00 0.00 0.00 0.00 0.00 0.00 0.00 0.00 0.00 0.00 0.00 0.00 0.00 0.00 0.00 0.00 0.00 0.00 0.00 0.00 0.00 0.00 0.00 0.00 0.00 0.00 0.01 0.01 0.01 0.01 0.01 0.01 0.01
0.00 0.00 0.00 0.00 0.00 0.00 0.00 0.00 0.00 0.00 0.00 0.00 0.00 0.00 0.00 0.00 0.00 0.00 0.00 0.00 0.00 0.00 0.00 0.00 0.00 0.00 0.00 0.00 0.00 0.00 0.00 0.00 0.00 0.00 0.00 0.00 0.00 0.00 0.01 0.01 0.01 0.01 0.01
0.00 0.00 0.00 0.00 0.00 0.00 0.00 0.00 0.00 0.00 0.00 0.00 0.00 0.00 0.00 0.00 0.00 0.00 0.00 0.00 0.00 0.00 0.00 0.00 0.00 0.00 0.00 0.00 0.00 0.00 0.00 0.00 0.00 0.00 0.00 0.00 0.00 0.00 0.00 0.01 0.01 0.01 0.01
0.00 0.00 0.00 0.00 0.00 0.00 0.00 0.00 0.00 0.00 0.00 0.00 0.00 0.00 0.00 0.00 0.00 0.00 0.00 0.00 0.00 0.00 0.00 0.00 0.00 0.00 0.00 0.00 0.00 0.00 0.00 0.00 0.00 0.00 0.00 0.00 0.00 0.00 0.00 0.00 0.01 0.01 0.01
0.00 0.00 0.00 0.00 0.00 0.00 0.00 0.00 0.00 0.00 0.00 0.00 0.00 0.00 0.00 0.00 0.00 0.00 0.00 0.00 0.00 0.00 0.00 0.00 0.00 0.00 0.00 0.00 0.00 0.00 0.00 0.00 0.00 0.00 0.00 0.00 0.00 0.00 0.00 0.01 0.01 0.01 0.01
0.00 0.00 0.00 0.00 0.00 0.00 0.00 0.00 0.00 0.00 0.00 0.00 0.00 0.00 0.00 0.00 0.00 0.00 0.00 0.00 0.00 0.00 0.00 0.00 0.00 0.00 0.00 0.00 0.00 0.00 0.00 0.00 0.00 0.00 0.00 0.00 0.00 0.00 0.01 0.01 0.01 0.01 0.01
0.00 0.00 0.00 0.00 0.00 0.00 0.00 0.00 0.00 0.00 0.00 0.00 0.00 0.00 0.00 0.00 0.00 0.00 0.00 0.00 0.00 0.00 0.00 0.00 0.00 0.00 0.00 0.00 0.00 0.00 0.00 0.00 0.00 0.00 0.00 0.00 0.00 0.01 0.01 0.01 0.01 0.01 0.01
0.00 0.00 0.00 0.00 0.00 0.00 0.00 0.00 0.00 0.00 0.00 0.00 0.00 0.00 0.00 0.00 0.00 0.00 0.00 0.00 0.00 0.00 0.00 0.00 0.00 0.00 0.00 0.00 0.00 0.00 0.00 0.00 0.00 0.00 0.00 0.00 0.00 0.00 0.01 0.01 0.01 0.01 0.01
0.00 0.00 0.00 0.00 0.00 0.00 0.00 0.00 0.00 0.00 0.00 0.00 0.00 0.00 0.00 0.00 0.00 0.00 0.00 0.00 0.00 0.00 0.00 0.00 0.00 0.00 0.00 0.00 0.00 0.00 0.00 0.00 0.00 0.00 0.00 0.00 0.00 0.00 0.01 0.01 0.01 0.01 0.01
0.00 0.00 0.00 0.00 0.00 0.00 0.00 0.00 0.00 0.00 0.00 0.00 0.00 0.00 0.00 0.00 0.00 0.00 0.00 0.00 0.00 0.00 0.00 0.00 0.00 0.00 0.00 0.00 0.00 0.00 0.00 0.00 0.00 0.00 0.00 0.00 0.01 0.01 0.01 0.01 0.01 0.01 0.01
0.00 0.00 0.00 0.00 0.00 0.00 0.00 0.00 0.00 0.00 0.00 0.00 0.00 0.00 0.00 0.00 0.00 0.00 0.00 0.00 0.00 0.00 0.00 0.00 0.00 0.00 0.00 0.00 0.00 0.00 0.00 0.00 0.00 0.00 0.00 0.00 0.01 0.01 0.01 0.01 0.01 0.02 0.02
0.00 0.00 0.00 0.00 0.00 0.00 0.00 0.00 0.00 0.00 0.00 0.00 0.00 0.00 0.00 0.00 0.00 0.00 0.00 0.00 0.00 0.00 0.00 0.00 0.00 0.00 0.00 0.00 0.00 0.00 0.00 0.00 0.00 0.00 0.00 0.00 0.01 0.01 0.01 0.02 0.02 0.02 0.02
0.00 0.00 0.00 0.00 0.00 0.00 0.00 0.00 0.00 0.00 0.00 0.00 0.00 0.00 0.00 0.00 0.00 0.00 0.00 0.00 0.00 0.00 0.00 0.00 0.00 0.00 0.00 0.00 0.00 0.00 0.00 0.00 0.00 0.00 0.00 0.01 0.01 0.01 0.02 0.02 0.02 0.03 0.03
0.00 0.00 0.00 0.00 0.00 0.00 0.00 0.00 0.00 0.00 0.00 0.00 0.00 0.00 0.00 0.00 0.00 0.00 0.00 0.00 0.00 0.00 0.00 0.00 0.00 0.00 0.00 0.00 0.00 0.00 0.00 0.00 0.00 0.00 0.00 0.00 0.01 0.01 0.02 0.02 0.02 0.03 0.03
0.00 0.00 0.00 0.00 0.00 0.00 0.00 0.00 0.00 0.00 0.00 0.00 0.00 0.00 0.00 0.00 0.00 0.00 0.00 0.00 0.00 0.00 0.00 0.00 0.00 0.00 0.00 0.00 0.00 0.00 0.00 0.00 0.00 0.00 0.00 0.00 0.00 0.01 0.01 0.02 0.02 0.02 0.02
0.00 0.00 0.00 0.00 0.00 0.00 0.00 0.00 0.00 0.00 0.00 0.00 0.00 0.00 0.00 0.00 0.00 0.00 0.00 0.00 0.00 0.00 0.00 0.00 0.00 0.00 0.00 0.00 0.00 0.00 0.00 0.00 0.00 0.00 0.00 0.00 0.00 0.00 0.01 0.01 0.01 0.01 0.01
0.00 0.00 0.00 0.00 0.00 0.00 0.00 0.00 0.00 0.00 0.00 0.00 0.00 0.00 0.00 0.00 0.00 0.00 0.00 0.00 0.00 0.01 0.01 0.01 0.01 0.01 0.01 0.01 0.01 0.01 0.01 0.01 0.01 0.00 0.00 0.00 0.00 0.00 0.00 0.00 0.00 0.00 0.00
0.00 0.00 0.00 0.00 0.00 0.00 0.00 0.00 0.00 0.00 0.00 0.00 0.00 0.00 0.00 0.00 0.00 0.00 0.00 0.00 0.00 0.01 0.01 0.02 0.02 0.02 0.01 0.01 0.01 0.02 0.02 0.02 0.02 0.01 0.01 0.01 0.00 0.00 0.00 0.00 0.00 0.00 0.01
0.00 0.00 0.00 0.00 0.00 0.00 0.00 0.00 0.00 0.00 0.00 0.00 0.00 0.00 0.00 0.00 0.00 0.00 0.00 0.00 0.00 0.00 0.01 0.01 0.02 0.02 0.01 0.01 0.02 0.03 0.03 0.04 0.03 0.02 0.02 0.02 0.01 0.01 0.00 0.00 0.00 0.01 0.01
0.00 0.00 0.00 0.00 0.00 0.00 0.00 0.00 0.00 0.00 0.00 0.00 0.00 0.00 0.00 0.00 0.00 0.00 0.00 0.00 0.00 0.00 0.00 0.01 0.01 0.01 0.01 0.02 0.03 0.05 0.06 0.06 0.04 0.02 0.02 0.02 0.01 0.01 0.00 0.00 0.00 0.00 0.01
0.00 0.00 0.00 0.00 0.00 0.00 0.00 0.00 0.00 0.00 0.00 0.00 0.00 0.00 0.00 0.00 0.00 0.00 0.01 0.01 0.01 0.00 0.00 0.01 0.01 0.02 0.03 0.03 0.03 0.04 0.05 0.05 0.03 0.01 0.01 0.02 0.01 0.01 0.00 0.00 0.00 0.00 0.00
0.00 0.00 0.00 0.00 0.00 0.00 0.00 0.00 0.00 0.00 0.00 0.00 0.00 0.00 0.00 0.00 0.00 0.01 0.01 0.01 0.01 0.01 0.01 0.01 0.01 0.01 0.01 0.01 0.01 0.01 0.02 0.03 0.03 0.02 0.01 0.01 0.02 0.02 0.03 0.01 0.00 0.00 0.01
MSLP
1021.91 1022.14 1022.31 1022.43 1022.51 1022.56 1022.58 1022.58 1022.56 1022.50 1022.42 1022.31 1022.18 1022.06 1021.95 1021.89 1021.86 1021.87 1021.91 1021.96 1021.97 1021.93 1021.81 1021.61 1021.34 1021.02 1020.69 1020.37 1020.08 1019.85 1019.66 1019.52 1019.41 1019.30 1019.19 1019.07 1018.94 1018.81 1018.68 1018.55 1018.44 1018.34 1018.24
1021.67 1021.91 1022.09 1022.22 1022.31 1022.38 1022.42 1022.44 1022.42 1022.38 1022.30 1022.20 1022.07 1021.94 1021.82 1021.73 1021.69 1021.69 1021.73 1021.79 1021.83 1021.84 1021.78 1021.65 1021.45 1021.19 1020.88 1020.57 1020.26 1019.98 1019.74 1019.53 1019.36 1019.20 1019.06 1018.92 1018.78 1018.64 1018.50 1018.37 1018.23 1018.10 1017.95
1021.38 1021.63 1021.83 1021.99 1022.11 1022.20 1022.26 1022.30 1022.31 1022.28 1022.21 1022.11 1021.98 1021.83 1021.70 1021.59 1021.53 1021.51 1021.54 1021.61 1021.67 1021.72 1021.72 1021.66 1021.53 1021.33 1021.07 1020.77 1020.46 1020.15 1019.86 1019.59 1019.36 1019.14 1018.95 1018.78 1018.62 1018.47 1018.33 1018.18 1018.02 1017.85 1017.66
1021.06 1021.34 1021.57 1021.76 1021.91 1022.03 1022.12 1022.18 1022.21 1022.19 1022.13 1022.02 1021.89 1021.74 1021.60 1021.47 1021.38 1021.35 1021.37 1021.42 1021.50 1021.58 1021.62 1021.62 1021.55 1021.41 1021.20 1020.94 1020.64 1020.32 1019.99 1019.67 1019.38 1019.11 1018.87 1018.66 1018.46 1018.29 1018.13 1017.96 1017.77 1017.57 1017.34
1020.72 1021.03 1021.30 1021.53 1021.72 1021.88 1022.00 1022.07 1022.11 1022.10 1022.05 1021.95 1021.82 1021.67 1021.52 1021.38 1021.28 1021.22 1021.22 1021.26 1021.33 1021.41 1021.48 1021.52 1021.50 1021.41 1021.25 1021.03 1020.75 1020.43 1020.09 1019.74 1019.39 1019.07 1018.78 1018.52 1018.29 1018.08 1017.89 1017.69 1017.48 1017.25 1017.00
1020.39 1020.73 1021.04 1021.31 1021.55 1021.74 1021.88 1021.97 1022.02 1022.02 1021.97 1021.88 1021.75 1021.61 1021.47 1021.33 1021.22 1021.15 1021.12 1021.14 1021.18 1021.25 1021.31 1021.36 1021.37 1021.32 1021.21 1021.03 1020.78 1020.48 1020.14 1019.77 1019.40 1019.04 1018.70 1018.38 1018.10 1017.85 1017.61 1017.38 1017.15 1016.90 1016.63
1020.09 1020.46 1020.81 1021.12 1021.39 1021.61 1021.77 1021.88 1021.93 1021.93 1021.90 1021.82 1021.72 1021.60 1021.47 1021.35 1021.24 1021.15 1021.09 1021.07 1021.07 1021.10 1021.14 1021.17 1021.18 1021.15 1021.07 1020.93 1020.73 1020.46 1020.14 1019.78 1019.39 1018.99 1018.61 1018.24 1017.91 1017.60 1017.32 1017.05 1016.79 1016.53 1016.25
1019.81 1020.21 1020.59 1020.94 1021.24 1021.49 1021.67 1021.79 1021.85 1021.87 1021.84 1021.79 1021.72 1021.63 1021.54 1021.44 1021.34 1021.24 1021.15 1021.08 1021.03 1020.99 1020.98 1020.97 1020.96 1020.93 1020.87 1020.77 1020.61 1020.38 1020.09 1019.75 1019.36 1018.95 1018.53 1018.12 1017.72 1017.36 1017.03 1016.72 1016.43 1016.15 1015.87
1019.56 1019.99 1020.40 1020.78 1021.10 1021.37 1021.57 1021.71 1021.79 1021.82 1021.82 1021.81 1021.78 1021.73 1021.68 1021.61 1021.53 1021.43 1021.31 1021.18 1021.06 1020.95 1020.86 1020.80 1020.74 1020.70 1020.65 1020.57 1020.44 1020.26 1020.02 1019.70 1019.32 1018.90 1018.46 1018.01 1017.56 1017.15 1016.76 1016.41 1016.09 1015.79 1015.51
1019.33 1019.78 1020.22 1020.62 1020.97 1021.25 1021.47 1021.63 1021.73 1021.80 1021.84 1021.87 1021.89 1021.90 1021.90 1021.87 1021.80 1021.69 1021.54 1021.37 1021.17 1020.99 1020.82 1020.67 1020.57 1020.49 1020.42 1020.36 1020.26 1020.12 1019.91 1019.62 1019.27 1018.85 1018.39 1017.90 1017.42 1016.96 1016.53 1016.14 1015.78 1015.46 1015.16
1019.11 1019.58 1020.03 1020.45 1020.82 1021.13 1021.38 1021.56 1021.70 1021.81 1021.90 1021.98 1022.05 1022.12 1022.16 1022.16 1022.11 1022.00 1021.82 1021.60 1021.34 1021.08 1020.83 1020.61 1020.44 1020.32 1020.23 1020.16 1020.08 1019.95 1019.77 1019.51 1019.17 1018.76 1018.29 1017.79 1017.28 1016.78 1016.31 1015.89 1015.50 1015.16 1014.84
1018.88 1019.37 1019.84 1020.28 1020.67 1021.01 1021.28 1021.50 1021.68 1021.84 1021.97 1022.11 1022.23 1022.34 1022.42 1022.46 1022.42 1022.30 1022.11 1021.84 1021.53 1021.21 1020.89 1020.61 1020.38 1020.20 1020.08 1019.98 1019.89 1019.77 1019.59 1019.35 1019.02 1018.61 1018.14 1017.63 1017.10 1016.59 1016.09 1015.64 1015.23 1014.86 1014.52
1018.64 1019.15 1019.64 1020.10 1020.51 1020.87 1021.18 1021.44 1021.67 1021.86 1022.05 1022.23 1022.39 1022.54 1022.65 1022.70 1022.67 1022.55 1022.34 1022.05 1021.71 1021.34 1020.97 1020.63 1020.35 1020.13 1019.95 1019.82 1019.69 1019.55 1019.36 1019.10 1018.77 1018.37 1017.90 1017.39 1016.86 1016.34 1015.84 1015.37 1014.94 1014.55 1014.18
1018.39 1018.92 1019.43 1019.91 1020.35 1020.74 1021.08 1021.38 1021.64 1021.87 1022.09 1022.30 1022.49 1022.66 1022.78 1022.83 1022.81 1022.69 1022.47 1022.18 1021.82 1021.43 1021.04 1020.67 1020.34 1020.07 1019.84 1019.65 1019.47 1019.28 1019.05 1018.76 1018.41 1018.00 1017.54 1017.04 1016.52 1016.01 1015.51 1015.04 1014.61 1014.19 1013.80
1018.14 1018.69 1019.22 1019.72 1020.18 1020.60 1020.96 1021.29 1021.58 1021.84 1022.08 1022.30 1022.49 1022.66 1022.77 1022.82 1022.80 1022.68 1022.48 1022.19 1021.85 1021.46 1021.07 1020.68 1020.32 1020.00 1019.72 1019.46 1019.21 1018.95 1018.66 1018.33 1017.95 1017.52 1017.05 1016.56 1016.06 1015.56 1015.08 1014.63 1014.19 1013.77 1013.36
1017.89 1018.47 1019.02 1019.54 1020.02 1020.45 1020.84 1021.18 1021.48 1021.75 1021.98 1022.20 1022.38 1022.52 1022.62 1022.66 1022.63 1022.52 1022.33 1022.07 1021.76 1021.40 1021.02 1020.64 1020.26 1019.91 1019.57 1019.24 1018.91 1018.57 1018.20 1017.81 1017.38 1016.93 1016.45 1015.97 1015.48 1015.01 1014.55 1014.11 1013.68 1013.26 1012.84
1017.64 1018.25 1018.82 1019.36 1019.85 1020.30 1020.69 1021.03 1021.33 1021.58 1021.80 1021.98 1022.13 1022.25 1022.31 1022.34 1022.30 1022.20 1022.03 1021.81 1021.54 1021.22 1020.88 1020.51 1020.14 1019.75 1019.37 1018.97 1018.56 1018.14 1017.70 1017.23 1016.76 1016.27 1015.78 1015.29 1014.81 1014.35 1013.91 1013.48 1013.06 1012.64 1012.22
1017.40 1018.03 1018.63 1019.18 1019.68 1020.12 1020.51 1020.84 1021.12 1021.34 1021.52 1021.66 1021.77 1021.84 1021.88 1021.88 1021.83 1021.74 1021.61 1021.43 1021.20 1020.94 1020.63 1020.30 1019.93 1019.53 1019.11 1018.66 1018.18 1017.69 1017.17 1016.65 1016.12 1015.59 1015.07 1014.57 1014.09 1013.63 1013.19 1012.76 1012.35 1011.93 1011.52
1017.14 1017.79 1018.40 1018.96 1019.46 1019.90 1020.28 1020.59 1020.83 1021.02 1021.16 1021.26 1021.32 1021.34 1021.34 1021.32 1021.26 1021.18 1021.08 1020.93 1020.76 1020.54 1020.28 1019.98 1019.63 1019.24 1018.79 1018.31 1017.79 1017.24 1016.67 1016.09 1015.51 1014.94 1014.39 1013.86 1013.36 1012.88 1012.42 1011.98 1011.56 1011.15 1010.74
1016.84 1017.51 1018.13 1018.70 1019.20 1019.63 1019.98 1020.27 1020.48 1020.63 1020.72 1020.77 1020.78 1020.77 1020.74 1020.69 1020.63 1020.55 1020.46 1020.35 1020.22 1020.04 1019.83 1019.56 1019.24 1018.85 1018.41 1017.92 1017.38 1016.80 1016.20 1015.59 1014.97 1014.37 1013.78 1013.21 1012.67 1012.15 1011.65 1011.18 1010.74 1010.31 1009.90
1016.46 1017.15 1017.78 1018.35 1018.85 1019.27 1019.61 1019.87 1020.05 1020.16 1020.22 1020.22 1020.20 1020.15 1020.09 1020.01 1019.94 1019.86 1019.78 1019.69 1019.58 1019.44 1019.26 1019.02 1018.73 1018.38 1017.96 1017.48 1016.95 1016.38 1015.78 1015.16 1014.52 1013.89 1013.26 1012.65 1012.05 1011.47 1010.92 1010.40 1009.92 1009.47 1009.06
1016.01 1016.70 1017.35 1017.93 1018.42 1018.84 1019.16 1019.39 1019.55 1019.63 1019.66 1019.63 1019.57 1019.49 1019.40 1019.31 1019.22 1019.14 1019.05 1018.97 1018.86 1018.74 1018.58 1018.38 1018.12 1017.81 1017.43 1017.00 1016.51 1015.97 1015.39 1014.78 1014.15 1013.50 1012.83 1012.17 1011.51 1010.87 1010.26 1009.68 1009.15 1008.68 1008.27
1015.48 1016.18 1016.83 1017.41 1017.91 1018.32 1018.63 1018.85 1018.98 1019.04 1019.04 1018.99 1018.91 1018.81 1018.70 1018.58 1018.47 1018.37 1018.27 1018.17 1018.06 1017.94 1017.80 1017.62 1017.40 1017.14 1016.82 1016.45 1016.02 1015.55 1015.02 1014.45 1013.83 1013.17 1012.49 1011.78 1011.06 1010.36 1009.68 1009.05 1008.48 1007.98 1007.57
1014.89 1015.61 1016.26 1016.84 1017.34 1017.73 1018.03 1018.24 1018.36 1018.40 1018.38 1018.32 1018.22 1018.09 1017.96 1017.82 1017.69 1017.56 1017.43 1017.31 1017.19 1017.06 1016.92 1016.77 1016.58 1016.37 1016.12 1015.83 1015.49 1015.09 1014.63 1014.11 1013.52 1012.88 1012.18 1011.44 1010.68 1009.93 1009.20 1008.53 1007.93 1007.42 1007.01
1014.31 1015.02 1015.66 1016.24 1016.72 1017.11 1017.39 1017.59 1017.69 1017.72 1017.68 1017.60 1017.48 1017.34 1017.19 1017.02 1016.86 1016.70 1016.54 1016.40 1016.25 1016.11 1015.97 1015.84 1015.69 1015.53 1015.36 1015.14 1014.89 1014.57 1014.19 1013.73 1013.19 1012.57 1011.88 1011.13 1010.35 1009.57 1008.82 1008.13 1007.53 1007.02 1006.63
1013.77 1014.46 1015.09 1015.64 1016.10 1016.47 1016.73 1016.90 1016.99 1017.00 1016.94 1016.85 1016.71 1016.55 1016.38 1016.19 1016.00 1015.81 1015.62 1015.44 1015.28 1015.12 1014.99 1014.87 1014.76 1014.65 1014.54 1014.40 1014.23 1014.00 1013.69 1013.30 1012.80 1012.22 1011.54 1010.80 1010.03 1009.25 1008.50 1007.83 1007.25 1006.77 1006.41
Thickness
5646 5643 5640 5637 5635 5633 5631 5629 5628 5626 5624 5622 5620 5618 5618 5617 5616 5614 5613 5611 5609 5608 5608 5608 5609 5609 5610 5610 5610 5611 5611 5611 5612 5612 5613 5613 5614 5615 5616 5616 5617 5618 5620
5642 5639 5636 5633 5631 5628 5626 5624 5622 5620 5619 5616 5615 5613 5612 5611 5610 5609 5607 5606 5603 5601 5600 5600 5601 5601 5601 5601 5602 5602 5602 5603 5603 5603 5604 5605 5605 5606 5607 5608 5609 5610 5611
5638 5635 5632 5629 5626 5623 5621 5618 5616 5613 5612 5610 5609 5608 5606 5605 5604 5603 5601 5599 5597 5595 5593 5592 5592 5592 5592 5592 5592 5592 5593 5593 5593 5594 5595 5595 5596 5597 5598 5599 5600 5601 5603
5634 5631 5628 5624 5621 5618 5615 5613 5611 5609 5607 5605 5604 5602 5600 5599 5597 5596 5594 5591 5589 5587 5585 5583 5582 5581 5581 5581 5582 5582 5582 5583 5584 5584 5585 5586 5587 5588 5589 5590 5591 5592 5594
5630 5627 5624 5620 5617 5613 5610 5607 5605 5603 5601 5598 5596 5595 5594 5592 5590 5587 5586 5583 5580 5578 5576 5574 5572 5571 5571 5571 5571 5572 5572 5573 5573 5574 5575 5576 5577 5578 5579 5580 5582 5583 5584
5626 5622 5619 5615 5611 5608 5605 5602 5599 5595 5593 5590 5588 5588 5587 5585 5582 5580 5577 5574 5571 5568 5567 5565 5564 5564 5562 5561 5561 5561 5562 5562 5563 5564 5565 5566 5567 5568 5569 5571 5572 5573 5575
5621 5617 5614 5610 5606 5603 5600 5596 5592 5589 5585 5582 5581 5582 5582 5578 5575 5571 5568 5565 5563 5560 5557 5555 5554 5553 5553 5552 5551 5550 5551 5551 5552 5554 5555 5556 5557 5558 5559 5560 5562 5563 5565
5616 5612 5609 5605 5600 5596 5592 5588 5584 5581 5577 5572 5572 5572 5574 5574 5567 5562 5559 5556 5554 5551 5549 5546 5544 5543 5543 5542 5542 5540 5539 5540 5541 5542 5544 5545 5546 5547 5548 5549 5551 5552 5554
5611 5607 5603 5599 5594 5590 5586 5581 5576 5573 5570 5565 5561 5559 5559 5562 5558 5556 5551 5547 5544 5541 5539 5536 5534 5533 5532 5531 5531 5530 5528 5527 5528 5530 5531 5532 5533 5535 5536 5537 5538 5540 5542
5604 5600 5596 5591 5587 5582 5578 5573 5568 5564 5560 5557 5552 5547 5546 5543 5540 5545 5544 5539 5535 5530 5528 5525 5523 5522 5521 5520 5519 5517 5516 5515 5515 5516 5518 5519 5520 5521 5522 5524 5525 5527 5528
5597 5592 5588 5584 5579 5574 5570 5565 5559 5555 5551 5548 5544 5540 5536 5531 5528 5526 5530 5530 5526 5522 5519 5515 5513 5511 5510 5508 5506 5505 5502 5502 5502 5503 5503 5504 5505 5506 5507 5509 5510 5512 5513
5590 5585 5580 5576 5571 5566 5561 5556 5551 5546 5542 5538 5533 5529 5526 5522 5520 5516 5516 5519 5518 5515 5509 5505 5503 5501 5498 5496 5495 5492 5490 5489 5489 5489 5489 5489 5490 5491 5492 5493 5494 5496 5498
5585 5578 5573 5568 5563 5557 5552 5547 5542 5537 5533 5528 5524 5520 5515 5512 5508 5504 5502 5504 5505 5505 5502 5497 5493 5489 5486 5484 5483 5480 5478 5477 5476 5475 5474 5475 5475 5475 5476 5477 5478 5480 5481
5581 5573 5566 5561 5555 5549 5543 5538 5533 5528 5523 5518 5514 5509 5504 5501 5496 5492 5489 5487 5489 5494 5494 5491 5485 5479 5475 5472 5470 5467 5467 5466 5464 5462 5460 5460 5460 5460 5460 5461 5462 5463 5464
5573 5565 5559 5552 5546 5540 5534 5529 5524 5519 5514 5509 5504 5499 5494 5490 5485 5481 5477 5473 5470 5475 5483 5480 5474 5469 5463 5460 5458 5455 5455 5454 5451 5448 5446 5445 5444 5443 5444 5444 5445 5446 5447
5565 5557 5551 5544 5538 5531 5525 5520 5515 5509 5504 5499 5493 5489 5485 5481 5476 5471 5466 5462 5459 5457 5462 5466 5461 5457 5453 5449 5445 5442 5441 5439 5437 5434 5431 5429 5427 5427 5426 5426 5427 5428 5429
5557 5550 5543 5536 5530 5524 5517 5512 5506 5500 5495 5490 5485 5480 5475 5470 5466 5462 5457 5453 5449 5446 5447 5452 5447 5444 5439 5435 5432 5428 5425 5423 5421 5418 5414 5412 5409 5408 5407 5407 5407 5407 5408
5550 5543 5536 5529 5522 5515 5509 5503 5498 5491 5486 5482 5477 5471 5466 5461 5456 5452 5448 5444 5440 5436 5434 5436 5435 5430 5425 5420 5416 5413 5409 5405 5402 5400 5395 5392 5389 5387 5386 5385 5385 5385 5385
5542 5534 5527 5521 5514 5507 5501 5495 5489 5483 5478 5473 5468 5462 5457 5452 5448 5443 5438 5434 5430 5425 5421 5420 5421 5415 5410 5404 5401 5397 5393 5388 5384 5380 5376 5372 5369 5367 5365 5364 5363 5363 5363
5533 5526 5519 5512 5505 5498 5491 5485 5479 5473 5468 5463 5458 5452 5447 5442 5438 5433 5428 5424 5419 5414 5410 5406 5404 5400 5395 5389 5383 5379 5377 5371 5366 5360 5356 5352 5350 5347 5346 5345 5344 5343 5342
5525 5517 5510 5503 5495 5489 5482 5475 5469 5464 5460 5455 5450 5444 5439 5433 5428 5422 5417 5413 5407 5402 5397 5392 5389 5385 5380 5373 5365 5359 5355 5353 5349 5339 5337 5335 5331 5331 5329 5328 5328 5327 5326
5515 5508 5501 5494 5487 5481 5474 5467 5461 5456 5452 5447 5443 5437 5432 5426 5419 5413 5407 5402 5395 5388 5383 5377 5373 5367 5363 5354 5348 5341 5335 5332 5332 5325 5318 5319 5314 5315 5315 5315 5315 5314 5314
5507 5500 5493 5486 5480 5473 5465 5458 5452 5448 5444 5440 5435 5429 5424 5418 5410 5404 5399 5392 5384 5375 5367 5360 5356 5351 5345 5338 5330 5325 5319 5313 5311 5308 5302 5306 5303 5304 5304 5305 5304 5304 5306
5500 5493 5485 5478 5472 5465 5457 5450 5444 5439 5436 5431 5426 5420 5414 5408 5400 5392 5387 5381 5373 5366 5357 5349 5343 5337 5328 5321 5313 5308 5303 5301 5300 5296 5290 5292 5295 5295 5296 5296 5296 5297 5299
5491 5484 5477 5470 5463 5457 5449 5441 5434 5431 5427 5423 5417 5410 5403 5397 5390 5380 5374 5369 5364 5357 5347 5339 5331 5323 5315 5308 5299 5294 5291 5287 5290 5290 5283 5281 5285 5285 5287 5289 5291 5292 5294
5483 5475 5467 5461 5455 5449 5441 5432 5425 5421 5418 5414 5408 5401 5393 5385 5377 5368 5360 5355 5350 5345 5337 5330 5321 5313 5304 5297 5289 5282 5277 5275 5276 5278 5277 5273 5273 5273 5279 5284 5285 5286 5288